GFSNW_sfc_thetae_000.txt.gz
Theta_e
308 308 306 305 305 305 303 297 287 301 303 288 288 283 286 293 293 298 295 294 293 291 292 291 292 293 296 301 300 295 296 292 289 294 298 301 297 294 294 287 285 287 285 288
307 307 306 305 305 304 300 292 292 300 298 284 284 286 288 289 290 294 293 292 294 294 292 289 293 294 299 300 300 295 296 289 285 287 296 299 296 298 295 293 291 289 287 288
307 307 305 305 305 305 300 287 284 290 293 292 286 284 285 285 291 291 293 292 294 292 291 292 291 294 298 299 300 309 303 291 290 288 289 297 294 298 298 294 288 290 291 294
306 305 305 305 305 304 300 288 286 290 284 287 286 284 284 285 284 291 292 290 292 290 287 289 289 292 294 298 303 300 296 289 291 292 295 298 296 297 298 294 294 292 294 295
306 306 306 305 305 304 297 286 287 290 286 289 288 287 283 284 287 286 288 288 292 290 288 289 288 290 291 291 292 294 295 290 291 290 295 295 294 297 299 299 296 296 297 295
305 305 306 306 305 303 294 292 295 292 287 288 286 286 286 287 288 290 291 290 289 288 291 293 292 292 292 292 290 289 292 293 290 286 295 294 291 295 298 298 299 298 294 299
306 306 306 306 305 303 296 296 295 287 284 287 287 289 289 288 289 286 292 291 288 293 298 296 293 290 291 292 290 292 292 293 292 290 293 284 294 301 302 301 301 300 300 301
305 305 304 305 306 303 297 299 295 288 285 288 288 290 289 290 290 289 291 294 295 296 294 289 286 287 288 290 293 296 298 294 290 289 284 293 296 300 299 299 298 303 302 302
305 305 304 304 305 304 299 299 300 293 286 286 292 290 291 287 285 287 290 294 296 294 290 287 281 281 286 286 294 300 298 298 293 285 286 286 294 302 305 303 294 303 305 302
305 305 305 304 305 305 301 298 299 292 288 291 292 289 289 289 288 285 289 289 291 294 287 276 278 282 290 287 291 292 291 291 292 285 283 290 299 304 305 293 295 304 306 305
306 305 305 304 305 305 301 299 300 293 290 291 295 295 292 292 289 285 289 288 289 289 285 285 286 285 288 287 293 293 292 288 288 285 285 287 303 303 299 302 303 306 306 306
305 305 305 305 305 305 303 295 303 301 295 291 294 296 296 295 294 291 289 289 292 295 287 289 290 288 289 288 285 297 292 295 292 293 292 299 306 305 307 304 305 306 305 305
307 305 305 305 305 305 303 298 298 298 293 287 288 289 293 295 296 296 287 290 296 296 296 296 292 288 292 289 289 293 297 298 295 296 298 300 305 305 306 306 306 309 308 308
307 305 305 306 305 305 304 298 299 298 291 283 286 295 291 295 295 296 294 293 294 293 298 296 292 290 296 291 293 294 298 299 296 295 298 300 303 306 306 308 309 310 311 310
306 306 306 306 305 304 303 301 300 297 290 282 285 289 293 295 295 295 295 293 291 289 289 291 292 294 293 294 295 293 299 297 297 295 299 301 302 307 307 308 309 311 311 311
304 305 306 305 305 304 297 288 295 296 296 285 278 288 290 297 294 293 293 293 293 293 294 291 296 299 294 291 292 299 301 303 302 300 303 302 305 309 309 308 310 311 311 311
304 304 304 304 304 299 293 291 297 301 296 289 285 283 293 298 294 293 293 298 297 296 295 291 293 295 297 291 288 297 299 304 306 305 308 307 309 306 308 310 311 311 312 313
304 305 304 305 302 297 294 300 304 300 295 294 286 286 288 299 293 292 298 294 295 295 293 295 296 296 296 288 294 297 301 303 306 307 308 309 311 311 310 310 311 310 310 312
305 305 303 297 294 290 293 304 303 298 293 288 288 285 283 295 293 295 294 296 289 293 292 292 294 291 288 292 296 298 300 302 304 307 308 310 309 307 308 309 310 310 310 312
301 296 291 285 292 303 302 293 288 287 287 292 286 291 287 292 292 288 291 293 290 287 291 298 292 288 295 297 297 299 300 302 307 305 304 306 306 307 305 306 309 311 312 311
291 288 286 292 300 294 291 286 282 283 282 288 291 290 289 295 287 286 294 287 287 284 289 291 289 288 296 297 298 303 304 305 306 307 306 307 307 307 306 307 308 309 311 311
295 296 299 296 293 288 285 279 282 282 281 289 289 291 294 293 296 291 292 288 288 285 293 290 287 294 299 301 302 303 303 305 303 303 304 304 306 306 305 305 305 307 310 311
298 296 291 284 284 282 281 281 280 282 287 288 290 288 293 294 293 290 289 286 285 295 287 288 292 296 298 302 302 303 304 303 301 301 301 303 303 303 303 302 302 304 305 306
290 287 281 282 280 284 287 287 288 290 287 289 290 289 290 289 288 289 286 290 291 285 284 286 293 296 298 300 302 300 300 301 303 304 302 303 303 302 302 303 304 305 305 308
289 285 281 284 288 290 290 290 289 290 290 288 288 287 288 285 286 288 287 284 285 286 286 292 295 296 298 298 301 303 303 302 302 302 303 303 303 303 303 302 302 303 307 312
288 287 286 288 288 288 289 290 289 290 290 289 289 285 284 283 286 285 285 284 284 287 294 296 298 298 298 301 303 303 304 302 301 300 299 300 300 300 302 300 300 302 303 310
285 284 288 286 287 287 288 289 289 291 288 283 286 284 284 288 286 285 286 286 289 294 296 298 299 299 298 301 301 301 300 300 301 301 299 298 297 297 298 296 297 298 299 302

GFSNW_sfc_thetae_003.txt.gz
Theta_e
308 307 307 308 307 304 302 297 287 303 305 287 288 286 289 292 293 297 297 298 297 296 297 296 296 296 299 303 304 299 304 302 296 298 303 307 305 301 302 295 294 296 295 295
307 307 307 307 306 304 302 291 291 302 301 283 285 289 289 290 290 292 295 295 297 299 297 295 298 298 302 303 303 303 304 302 295 295 302 305 300 302 303 303 302 296 293 296
307 307 307 307 305 304 302 290 285 288 294 293 288 287 286 286 292 291 292 293 297 296 295 297 296 298 300 302 304 310 307 303 298 293 296 302 300 301 302 301 297 297 297 299
307 307 306 305 305 304 299 290 286 289 283 286 287 288 288 286 286 292 295 294 294 294 294 295 296 297 298 301 306 306 306 299 300 301 301 302 301 301 302 300 301 297 300 301
307 306 306 305 305 304 297 286 288 288 287 287 288 288 286 286 288 289 289 290 293 294 293 294 294 296 297 297 300 303 303 300 301 298 300 300 298 301 302 303 302 303 303 303
306 307 306 306 305 304 294 293 296 291 288 287 287 287 288 288 290 291 292 292 292 292 295 299 299 299 299 298 297 298 302 301 297 294 298 298 294 299 300 303 305 304 300 306
306 305 305 305 305 304 298 297 295 288 284 287 287 287 290 289 290 288 294 294 292 296 302 302 301 299 298 297 297 298 303 303 300 296 298 289 301 306 304 303 305 307 307 309
306 305 305 305 304 303 301 301 296 289 285 288 287 290 289 291 292 291 292 296 299 302 300 294 291 293 294 295 297 297 300 302 301 297 296 298 301 304 302 302 303 309 308 310
306 306 305 304 305 304 302 302 303 294 287 287 289 286 292 290 289 290 293 298 302 300 296 292 286 286 290 290 294 301 302 304 300 299 295 291 302 309 310 310 300 311 312 312
306 306 305 304 304 304 303 301 302 296 289 292 288 288 290 293 292 290 293 294 296 300 292 288 287 287 293 289 289 294 296 298 294 294 296 299 306 310 311 299 302 315 314 314
306 306 305 305 304 305 304 300 303 297 292 293 294 294 292 293 294 290 294 294 295 294 289 288 288 288 291 291 295 294 294 293 293 297 293 291 308 309 305 314 315 315 315 316
307 306 306 306 305 305 304 297 303 304 295 294 298 299 300 299 299 297 296 294 294 298 293 293 292 290 294 291 286 297 294 298 296 298 298 310 313 314 318 319 317 313 317 317
306 306 306 306 305 305 303 300 301 300 293 294 293 294 298 300 301 303 295 297 298 297 301 297 298 291 297 291 291 293 297 305 301 302 304 308 311 315 316 314 314 315 317 317
306 306 306 305 305 305 304 300 302 299 295 288 291 299 297 300 300 300 301 301 300 301 301 298 296 292 300 296 297 296 296 302 303 303 307 308 310 314 314 314 315 316 316 317
305 305 306 306 305 305 305 302 302 301 294 287 290 295 297 299 300 298 299 299 298 297 296 294 294 299 298 299 299 297 302 299 299 300 308 310 312 315 315 314 314 316 317 317
305 304 304 305 305 305 301 294 301 304 302 291 285 294 294 299 299 298 297 298 298 298 295 295 299 301 300 294 293 300 305 305 305 306 310 311 314 317 316 316 317 317 317 318
304 305 304 304 304 303 297 294 300 304 303 293 288 289 296 300 298 298 297 299 297 298 295 294 296 298 300 296 291 299 304 305 305 307 310 310 311 312 316 316 316 316 319 319
304 305 306 305 302 300 297 304 305 304 299 295 287 287 291 299 293 292 300 296 297 295 295 297 295 298 298 291 297 300 301 302 303 306 310 312 315 316 314 316 316 315 315 316
304 304 303 301 299 297 299 304 304 304 298 288 288 286 283 296 295 293 294 296 288 297 292 294 297 293 289 295 298 300 301 302 304 306 309 312 312 314 314 314 315 314 315 316
301 300 296 292 298 302 304 299 294 294 293 293 287 292 287 292 292 290 287 292 290 287 292 298 292 291 298 301 302 302 302 304 306 305 307 311 312 313 314 314 315 317 317 317
298 293 292 297 301 299 296 289 288 289 287 291 292 292 289 295 287 288 291 289 292 286 289 290 289 290 297 301 301 303 306 309 308 309 310 313 315 314 314 315 316 316 316 317
298 297 300 298 294 291 287 286 288 287 286 291 290 291 292 295 293 289 292 289 289 285 294 290 287 295 300 301 302 304 305 305 305 307 309 311 313 314 314 313 314 315 316 318
301 297 291 290 289 283 283 282 285 285 291 292 292 289 292 295 295 291 288 286 285 288 285 287 291 297 300 302 303 302 305 305 305 306 306 307 307 308 311 312 314 314 313 317
292 288 283 285 285 285 286 286 288 292 292 293 292 291 291 294 290 290 286 290 291 287 285 287 294 297 299 300 303 302 304 305 306 306 306 306 306 305 306 310 313 315 316 317
290 290 284 286 290 291 291 292 292 294 295 293 292 292 292 292 289 290 287 287 285 285 287 293 297 300 301 301 302 304 303 303 304 305 305 306 307 307 306 309 311 316 316 315
292 291 289 291 289 291 292 293 292 296 294 294 294 290 289 287 288 287 286 285 283 287 295 298 301 301 303 303 304 304 304 303 303 302 302 303 305 305 305 307 308 310 314 315
291 291 293 291 290 290 292 293 294 297 294 290 292 287 285 288 286 286 286 284 286 293 297 300 301 301 302 303 303 303 303 302 302 303 303 303 304 305 305 303 304 306 307 309

GFSNW_sfc_thetae_006.txt.gz
Theta_e
308 308 308 308 307 305 302 297 288 305 308 288 288 286 292 294 295 298 297 300 300 300 301 301 301 300 303 306 306 302 308 304 299 301 307 309 307 304 305 298 297 300 299 299
308 307 308 308 307 304 298 292 293 306 301 284 285 292 292 295 293 293 295 296 301 303 301 299 302 303 306 306 305 304 307 302 296 298 304 307 303 305 306 306 305 300 296 299
308 307 307 307 306 304 302 296 286 294 293 293 291 289 288 288 296 294 294 294 297 299 299 303 301 302 305 306 306 310 310 304 301 296 300 303 301 302 305 305 300 300 300 302
308 307 307 306 305 304 302 296 289 292 287 286 290 290 290 288 288 294 296 294 296 299 297 299 299 303 304 305 307 309 310 301 302 302 303 304 303 302 303 302 304 300 302 303
307 307 307 306 305 304 299 290 289 290 291 290 290 290 287 288 289 291 291 292 293 298 297 300 298 302 303 302 306 306 310 301 303 301 302 303 301 303 304 304 304 304 305 304
307 307 306 306 305 304 299 295 296 291 289 288 287 286 289 289 292 293 295 294 294 294 299 302 304 306 305 305 306 306 306 303 301 297 301 301 297 302 304 305 306 306 302 307
307 307 306 306 306 305 303 299 296 291 287 289 288 289 290 289 291 291 295 296 294 297 304 305 305 304 303 303 304 309 306 304 303 298 300 291 302 308 307 305 306 308 308 310
307 307 306 305 304 304 303 302 298 294 287 290 289 290 290 292 293 290 295 297 300 301 300 297 296 297 299 300 303 302 310 307 300 298 298 299 303 306 305 304 304 309 309 310
308 307 305 304 305 305 304 303 303 298 289 290 291 288 292 291 291 291 295 299 306 303 295 292 290 290 294 295 297 303 304 310 303 301 296 292 303 309 312 311 300 311 312 312
307 306 306 304 304 305 305 303 306 298 290 295 294 289 288 295 295 293 295 297 298 302 292 288 290 292 298 294 295 296 298 300 299 299 300 301 309 311 314 301 303 315 315 316
307 307 307 306 304 305 305 305 307 300 291 295 296 294 288 292 297 292 297 295 296 295 290 289 289 292 296 296 299 298 298 297 297 301 298 295 313 313 306 312 322 318 319 320
306 307 307 306 305 305 305 299 305 305 296 296 301 301 302 300 301 298 299 297 296 296 293 292 293 290 294 295 292 301 296 302 300 301 302 316 317 315 320 319 317 318 321 322
306 307 306 305 306 305 305 305 306 300 295 296 298 298 303 304 305 306 296 299 301 301 304 299 294 291 295 290 294 297 301 304 302 303 307 309 312 318 320 322 320 320 323 324
306 306 306 306 305 305 305 305 307 303 298 290 296 303 300 304 305 304 305 302 306 304 304 298 294 292 298 294 298 297 300 302 300 302 306 308 310 312 317 320 322 320 321 322
305 305 305 306 306 306 307 308 307 308 298 290 293 300 302 303 304 304 304 302 301 299 298 297 294 299 298 298 297 296 303 301 298 298 306 308 309 313 314 319 319 320 320 320
305 305 306 304 305 305 306 299 307 308 305 294 288 299 299 301 303 303 302 301 300 299 298 297 300 304 301 295 293 300 303 307 310 306 312 313 317 319 319 316 320 321 322 322
305 305 305 306 305 304 300 297 303 304 308 294 290 291 300 302 299 299 300 302 299 299 297 295 297 299 300 296 293 300 303 308 310 312 311 309 313 313 315 319 319 319 322 323
305 305 304 306 304 302 300 306 305 306 301 296 288 289 294 301 295 293 301 298 298 298 296 297 295 297 298 292 298 301 302 304 306 308 310 311 315 317 319 319 320 320 320 320
305 303 303 305 303 301 303 305 306 308 300 292 290 287 286 299 297 297 298 299 291 300 294 294 298 295 291 295 298 300 302 303 304 307 307 308 311 314 317 318 319 317 318 319
303 305 301 298 303 304 305 302 297 296 297 296 291 294 288 292 290 292 292 294 291 289 293 298 293 293 299 301 303 305 306 307 308 305 305 307 308 313 316 317 319 318 318 319
302 296 297 303 305 303 300 293 293 295 290 295 295 294 290 296 289 288 294 289 294 287 293 292 291 291 297 303 304 306 308 309 310 311 311 313 315 316 317 318 319 319 320 321
300 300 301 302 300 298 291 291 294 292 289 295 294 294 295 294 294 287 290 287 291 285 298 292 289 297 302 304 305 307 309 310 311 312 313 315 316 318 319 320 319 320 323 324
304 299 296 296 295 287 285 283 288 288 294 296 295 292 294 295 295 291 288 285 286 290 287 289 293 300 301 303 304 306 309 310 312 312 314 316 317 318 320 320 322 324 323 324
298 294 286 288 287 288 288 288 289 292 295 295 295 293 295 297 292 291 285 289 287 284 284 286 295 297 300 300 302 304 305 309 311 311 314 313 313 315 317 319 320 318 320 322
296 296 286 289 294 293 296 296 294 298 300 297 296 295 295 293 290 291 287 286 285 285 286 291 297 299 299 300 303 303 305 306 305 308 311 311 312 313 314 315 317 318 318 318
298 296 292 296 295 295 296 297 297 301 300 300 299 293 291 289 286 286 285 284 282 285 294 298 300 300 301 301 302 302 303 303 302 306 310 310 310 310 309 310 311 313 316 316
294 294 299 298 297 295 297 298 298 302 298 294 294 288 287 290 287 285 286 284 285 290 297 300 303 303 303 304 303 302 302 303 304 304 305 304 306 308 307 307 309 310 313 316

GFSNW_sfc_thetae_009.txt.gz
Theta_e
308 308 308 308 308 307 303 296 290 305 309 290 291 286 291 294 295 299 298 298 297 298 302 303 302 302 305 309 309 303 309 307 302 304 310 311 309 305 307 300 299 302 301 302
307 308 308 308 306 304 299 295 298 308 306 286 289 293 292 292 294 295 295 295 298 301 299 299 304 304 309 309 308 306 310 305 300 302 306 309 306 306 307 308 307 302 298 300
308 308 308 307 305 303 302 293 289 295 297 294 290 291 290 290 296 294 296 296 298 296 297 303 302 304 308 309 308 312 313 308 303 299 303 305 302 304 306 306 301 301 302 304
308 307 307 306 305 304 302 297 292 295 287 289 291 291 291 290 289 294 297 294 295 296 296 300 301 305 306 308 309 310 312 305 305 306 307 306 305 304 304 304 304 302 304 305
307 307 307 306 305 304 300 292 293 298 293 292 290 291 290 288 290 292 292 292 295 295 296 300 298 302 305 305 307 307 314 305 305 302 305 306 303 305 305 305 305 305 306 306
308 308 307 306 306 304 298 303 301 294 289 291 289 288 290 290 292 293 295 295 294 293 297 299 303 306 307 309 306 309 307 306 303 299 303 303 300 304 305 306 306 307 303 309
308 308 307 307 306 304 304 302 302 290 288 289 290 291 291 291 292 291 295 297 294 299 303 303 305 305 306 309 309 312 310 308 305 300 302 293 304 310 309 307 308 309 309 311
308 308 307 305 305 305 304 302 297 294 289 292 291 291 292 294 294 294 295 298 301 303 299 295 295 299 301 304 307 308 313 310 301 299 299 301 304 307 307 305 305 311 310 312
308 308 307 306 306 306 304 306 303 297 291 292 294 293 294 291 292 294 296 301 305 301 295 292 288 290 296 297 301 309 309 312 306 301 297 293 304 309 312 312 301 312 312 312
306 308 308 307 305 306 305 304 308 300 292 297 297 291 290 294 296 294 297 298 299 302 293 288 290 292 300 294 296 298 302 305 301 298 299 302 309 312 313 300 304 315 314 314
307 307 308 307 306 306 306 305 310 302 295 297 298 297 293 294 295 292 298 297 298 298 292 289 289 292 298 297 301 300 298 300 300 301 297 296 313 312 305 313 316 317 316 316
306 307 307 307 306 306 306 302 310 309 297 296 303 303 302 301 297 294 299 298 297 298 295 294 294 291 294 296 293 305 299 304 302 304 303 315 316 315 320 320 318 318 319 319
306 306 306 307 306 305 305 305 308 305 298 299 300 298 305 308 307 306 296 299 302 302 306 301 296 291 296 293 295 299 304 309 305 307 311 312 315 318 320 319 319 320 320 322
306 306 306 306 307 306 306 304 310 306 300 292 298 306 303 307 307 306 306 302 304 305 304 299 297 293 297 294 297 298 302 304 305 306 309 312 314 317 318 319 320 322 323 322
306 306 306 306 306 306 306 309 311 310 300 293 295 302 305 306 306 305 306 305 303 299 298 298 294 298 296 297 297 294 301 301 300 303 310 310 311 315 316 318 319 321 320 320
306 306 306 306 307 306 304 298 308 309 309 296 291 302 301 303 305 304 304 304 302 300 297 296 300 304 300 293 292 299 301 305 308 306 311 312 317 319 318 316 318 322 321 322
306 306 305 305 306 306 299 298 303 304 308 296 292 293 300 302 304 303 302 304 302 300 298 296 296 296 300 295 292 301 303 303 306 311 312 310 313 313 316 317 318 317 321 323
306 306 305 304 306 305 301 308 306 306 301 300 290 292 294 303 298 296 302 298 300 299 298 299 296 297 298 292 298 301 303 305 305 306 311 312 313 316 318 320 319 318 318 319
305 305 303 307 304 300 304 306 306 308 302 293 294 289 287 301 297 298 300 302 292 299 295 296 297 294 291 295 298 299 302 304 304 307 310 311 310 311 314 316 317 316 318 320
306 307 304 298 303 305 307 303 299 297 297 297 294 298 291 294 292 294 296 298 292 290 294 298 294 293 299 300 301 302 305 305 307 304 304 307 307 308 309 313 316 317 318 320
305 301 300 306 308 305 301 295 294 296 292 296 297 297 293 298 290 290 293 292 293 287 293 292 292 291 298 301 302 304 306 307 307 309 309 311 311 311 311 311 314 317 318 320
302 302 304 306 303 301 293 293 295 294 291 296 296 296 299 298 296 288 290 288 291 286 298 293 289 295 300 303 303 304 306 307 308 310 310 311 312 312 313 316 318 318 319 320
307 303 299 298 298 289 288 285 289 291 296 297 297 293 297 299 295 288 287 285 286 292 288 290 295 301 304 306 307 307 307 308 309 309 312 312 312 313 314 315 319 322 320 320
302 297 287 292 290 293 294 292 293 297 298 296 295 295 294 296 292 290 285 289 287 286 285 288 293 295 296 300 303 306 307 308 310 311 313 313 313 314 315 317 320 321 320 324
298 298 289 291 297 298 298 300 299 300 300 300 299 297 296 293 290 290 288 286 285 286 285 289 292 297 298 299 302 301 304 307 310 312 312 315 315 316 320 323 325 324 322 321
300 298 294 297 296 296 296 297 297 301 301 301 301 294 291 289 288 286 285 284 282 284 285 295 298 298 299 299 301 301 303 304 309 307 313 315 315 317 319 320 320 320 320 319
296 296 299 297 296 295 296 298 298 302 299 294 295 289 288 292 288 286 286 283 284 287 297 302 302 301 302 302 301 301 302 303 305 307 309 311 313 316 315 313 316 318 318 318

GFSNW_sfc_thetae_015.txt.gz
Theta_e
307 308 308 308 308 306 304 298 288 302 304 289 290 285 288 293 292 294 291 291 289 287 289 288 289 292 299 304 304 297 299 295 292 297 303 304 302 299 297 293 290 293 291 293
308 308 308 308 308 305 300 292 292 302 302 283 285 288 289 291 290 290 290 290 292 291 289 286 291 295 301 303 301 299 299 295 289 293 297 301 300 302 301 298 296 293 290 292
308 308 308 308 307 305 300 292 285 294 295 293 288 286 287 287 293 291 292 291 293 289 288 291 289 291 298 301 303 309 305 295 293 290 295 299 298 301 301 298 292 294 296 297
308 308 308 308 307 305 300 293 289 293 286 288 289 289 287 285 285 291 291 289 290 289 285 288 288 292 295 299 303 298 300 293 297 298 300 301 301 301 301 298 299 296 298 299
308 308 308 308 307 306 298 289 290 292 288 290 288 288 286 285 287 289 287 287 291 291 288 289 287 291 291 292 296 293 296 294 297 295 301 300 300 302 302 302 301 300 300 299
307 308 308 308 307 305 297 298 299 294 289 287 287 287 288 288 290 292 293 292 290 290 292 294 296 295 294 294 292 291 292 296 294 291 297 298 294 301 301 302 302 301 297 300
307 307 308 308 308 305 302 299 297 289 285 287 288 289 290 289 290 289 292 293 290 294 301 299 296 295 295 295 295 295 291 292 295 292 294 286 298 305 306 303 304 303 303 305
307 307 307 308 309 306 301 302 296 289 284 287 289 290 290 292 292 290 292 294 298 298 295 290 288 288 290 293 295 295 297 294 293 290 290 296 300 304 303 301 300 306 303 306
307 307 308 308 308 307 301 302 303 295 287 286 292 289 291 287 287 289 292 297 298 297 294 290 283 281 288 291 297 300 299 300 295 292 287 286 297 305 308 306 297 306 306 305
307 307 307 308 308 308 303 302 305 297 290 292 294 288 289 293 291 287 291 292 292 297 290 285 284 284 290 286 290 295 295 296 294 292 289 294 303 308 308 294 295 307 308 307
306 307 307 307 308 308 304 301 305 299 293 294 297 297 293 293 292 288 291 289 291 291 285 287 288 287 288 287 291 294 294 294 293 292 291 288 306 305 298 301 307 309 309 310
306 306 307 307 307 308 307 299 306 306 298 295 300 300 301 299 298 293 291 290 289 293 290 289 291 289 291 289 285 297 293 297 294 296 295 305 308 305 312 312 307 310 310 311
306 306 307 307 306 307 306 301 302 303 297 295 296 298 302 305 303 302 292 296 297 295 297 292 292 289 292 286 288 291 296 297 296 297 301 302 308 310 312 312 310 313 314 314
306 306 307 307 307 306 306 301 303 302 297 291 292 302 300 307 305 302 300 299 301 300 299 293 291 289 295 291 293 292 295 296 298 298 300 302 304 307 311 314 314 314 314 315
306 307 307 307 306 305 305 303 303 306 297 290 291 298 304 305 305 303 303 300 297 296 294 292 290 295 294 296 295 291 297 295 294 294 299 299 300 303 314 313 312 314 313 314
307 307 307 306 305 306 301 297 306 308 303 293 287 298 299 302 302 302 301 300 298 296 294 293 295 298 294 289 287 295 298 301 300 297 301 301 302 305 309 313 314 315 315 316
306 306 307 307 306 303 298 296 302 304 302 295 290 290 298 302 301 299 298 300 297 295 293 292 293 294 296 291 286 295 298 300 301 302 303 300 303 301 305 311 315 316 319 319
306 306 306 307 305 303 299 303 307 305 298 298 289 289 293 302 296 293 298 295 296 295 293 293 291 293 293 287 292 296 297 297 299 302 304 302 303 304 304 313 315 314 316 318
305 306 306 306 301 300 303 308 308 305 298 291 292 287 286 300 296 296 296 299 290 296 290 291 292 289 286 291 293 295 297 297 298 302 301 302 301 303 304 304 311 314 314 315
306 306 303 300 303 309 309 303 299 297 297 296 290 295 287 296 294 291 292 295 290 287 290 296 290 289 294 295 296 297 298 300 299 298 298 301 300 302 303 305 307 313 315 314
305 300 300 305 311 305 301 295 294 296 292 296 296 295 292 299 290 288 291 287 289 285 290 291 288 288 294 297 298 301 300 299 300 302 303 303 303 303 304 307 309 310 310 311
302 300 303 305 304 298 294 291 294 292 290 296 294 295 297 297 295 289 289 286 289 284 291 289 287 290 293 293 294 297 300 302 300 301 302 303 306 305 306 307 308 310 311 312
308 301 300 296 296 287 286 285 289 290 295 296 296 294 296 296 293 288 287 284 284 290 286 285 288 292 293 293 296 297 300 303 301 300 302 305 307 308 307 306 308 310 310 311
302 297 287 291 288 291 291 292 293 297 298 298 297 296 295 295 291 289 285 288 287 284 283 284 289 291 292 295 298 299 299 303 305 302 302 303 306 307 307 307 308 309 309 311
298 298 287 291 296 298 297 298 296 298 299 298 295 295 296 291 289 289 287 285 282 284 283 285 290 293 294 296 298 300 301 303 305 306 306 308 308 306 306 308 309 311 310 310
300 299 294 297 295 294 296 296 295 299 299 300 297 292 290 289 288 286 284 283 281 284 285 291 296 296 298 297 299 301 303 304 304 305 307 308 309 309 309 310 312 316 318 317
298 297 300 299 296 296 296 298 297 301 298 293 294 288 286 291 286 284 285 284 285 291 295 299 301 298 299 301 301 301 301 302 303 305 307 308 310 311 311 309 314 316 316 316

GFSNW_sfc_thetae_021.txt.gz
Theta_e
307 307 308 308 307 305 297 290 284 297 304 288 288 281 286 291 288 292 289 289 287 286 287 285 285 285 290 296 294 289 292 288 286 289 294 299 295 291 291 288 285 288 287 289
307 307 307 308 307 305 297 290 290 298 300 283 284 287 287 288 288 288 288 287 289 290 287 283 287 289 295 295 292 291 292 288 284 285 290 293 293 293 294 290 290 287 288 291
307 307 307 307 307 306 293 290 283 289 292 290 286 285 285 285 291 289 289 288 289 287 285 288 286 287 291 294 293 299 294 288 288 285 288 292 289 293 293 292 288 289 291 291
308 307 307 307 307 306 294 287 284 290 283 285 286 285 286 284 284 289 288 285 286 286 283 285 285 289 291 293 295 294 288 283 289 293 294 293 294 293 294 293 293 291 294 294
307 307 308 308 307 303 290 287 289 289 287 288 285 284 284 285 287 287 286 284 287 288 285 287 285 289 289 288 291 291 289 282 288 290 294 294 291 294 295 295 296 295 295 294
306 307 308 308 307 300 294 295 297 291 285 285 280 280 284 286 288 290 291 290 287 286 289 293 294 294 294 293 290 289 288 285 283 283 293 291 287 292 293 295 298 298 294 297
305 306 307 307 308 303 296 295 295 288 281 282 283 286 287 287 288 286 290 291 286 291 296 295 295 294 293 294 293 293 288 284 284 281 288 280 292 297 297 296 298 299 297 300
304 304 305 307 308 307 298 294 296 290 284 284 286 287 287 288 288 287 289 291 292 292 290 287 285 287 288 289 292 291 291 286 281 281 282 289 293 296 295 294 294 301 301 300
304 304 305 306 307 307 299 294 295 294 287 283 289 287 288 286 286 286 288 292 293 290 286 284 279 279 285 285 290 297 293 289 284 285 281 280 291 298 301 300 293 300 301 300
305 305 306 306 307 307 299 299 297 297 288 291 292 288 288 291 290 287 287 288 289 295 288 282 277 281 288 283 285 286 285 285 282 284 282 290 297 299 304 292 291 304 302 301
305 305 306 307 307 307 302 299 299 297 292 293 294 294 290 290 291 287 288 287 291 290 283 282 284 286 288 286 288 286 285 286 283 286 285 284 300 299 293 297 302 306 304 301
305 305 306 307 307 307 306 296 299 301 295 292 296 297 298 297 295 292 292 288 290 291 286 289 289 288 288 287 282 290 285 288 287 290 292 297 299 296 299 300 299 305 308 309
305 306 306 308 308 308 306 297 299 298 294 293 289 291 295 299 298 300 291 289 295 294 295 291 290 286 290 285 286 287 291 295 291 291 299 298 297 299 300 301 300 302 310 312
305 306 307 307 306 307 306 299 299 298 295 289 289 297 295 301 301 300 299 294 297 298 297 291 289 287 292 288 288 287 291 293 291 291 296 298 298 298 299 301 302 302 307 313
306 306 306 306 305 306 302 298 299 299 291 286 289 295 298 300 301 300 299 296 291 289 292 292 288 290 289 293 292 289 294 292 290 289 298 296 296 299 301 300 300 302 303 313
306 306 306 306 306 305 294 289 296 299 299 292 284 293 296 299 301 301 299 297 295 295 293 291 290 292 293 289 287 294 297 299 299 296 300 300 301 302 302 299 301 303 307 314
305 305 306 307 306 295 291 290 298 302 299 292 287 287 296 299 301 300 299 298 296 295 292 289 288 289 294 289 285 292 297 299 300 302 302 298 301 298 301 301 303 304 311 311
304 305 307 307 306 301 294 296 303 303 296 295 287 287 290 298 294 293 298 294 293 291 289 288 287 287 289 285 290 292 294 296 300 302 303 300 301 303 301 302 303 303 307 309
304 306 306 300 294 292 295 307 304 298 296 289 288 285 284 296 295 295 294 293 288 290 288 290 290 284 283 290 291 292 293 293 294 297 299 302 301 301 302 301 302 304 307 308
305 300 296 291 296 306 305 297 293 296 297 295 289 293 285 292 293 291 289 291 287 285 289 292 288 284 291 293 296 296 296 296 296 294 296 300 300 300 301 302 301 303 307 308
295 291 291 296 302 297 293 288 287 288 287 293 292 291 289 296 289 288 290 286 285 281 288 287 287 287 293 297 296 298 298 298 297 297 298 298 299 300 300 302 304 302 304 307
294 297 300 298 293 290 287 282 287 286 284 291 289 290 291 294 293 288 288 284 284 281 290 285 285 291 294 295 296 297 300 299 298 298 299 300 301 302 302 303 303 304 304 307
302 298 295 288 287 280 283 280 283 283 288 290 289 287 290 291 289 289 286 280 282 289 285 285 288 293 294 295 298 299 301 302 299 300 301 302 304 304 303 303 305 304 304 306
293 290 280 282 281 281 283 283 285 289 289 290 288 287 288 287 285 288 284 286 285 277 280 282 289 293 295 297 299 299 299 301 301 301 303 304 302 302 303 304 305 304 305 308
293 288 279 282 288 289 290 291 289 290 290 288 288 287 288 283 284 288 285 279 273 280 283 288 293 296 298 299 300 299 299 299 299 300 300 302 305 303 301 304 303 304 309 313
296 291 287 288 287 288 288 288 288 291 290 290 288 284 283 283 285 282 282 282 281 285 286 294 295 295 297 299 300 301 302 301 300 298 299 302 304 306 306 304 304 304 307 306
292 287 290 289 288 288 288 288 289 290 289 285 286 282 282 283 278 277 285 285 286 290 294 295 295 295 297 299 300 301 302 301 302 300 299 300 303 306 306 305 307 309 308 308

GFSNW_sfc_thetae_024.txt.gz
Theta_e
308 308 308 308 307 306 300 292 280 295 303 288 287 281 285 290 287 290 288 288 285 283 286 285 283 283 287 294 293 286 291 286 284 288 293 297 294 289 288 285 283 285 285 286
308 307 307 308 307 306 298 288 286 296 298 282 284 287 287 288 287 287 287 286 288 289 286 282 287 287 292 293 291 288 291 285 281 283 289 291 291 291 290 288 287 285 283 286
307 307 307 307 307 306 292 285 281 286 289 289 287 283 284 284 290 288 288 287 288 285 285 288 285 287 291 293 293 297 294 285 285 282 285 289 288 291 292 287 283 286 290 290
306 306 307 307 307 304 292 285 283 290 280 282 286 284 284 283 283 289 289 284 285 284 282 285 285 289 290 292 295 294 290 281 286 288 291 292 291 291 291 290 291 287 290 292
306 305 306 307 307 302 290 285 285 289 286 287 283 283 282 283 286 286 286 285 287 286 283 286 284 288 289 288 291 291 291 281 285 283 291 292 291 291 292 292 292 291 292 292
305 305 305 306 306 300 289 290 292 292 286 285 279 278 284 284 286 288 290 288 286 285 287 291 291 292 292 292 290 288 287 283 281 279 286 288 286 291 291 292 295 294 290 296
304 304 304 306 306 305 298 296 295 289 282 284 284 285 286 285 287 286 288 290 286 289 293 294 292 291 291 292 292 293 287 285 282 279 285 280 290 295 296 293 294 295 295 297
305 304 305 306 306 307 299 297 295 290 283 286 286 287 286 287 288 285 287 290 292 291 289 284 282 286 287 289 291 291 291 287 281 279 282 287 291 294 293 290 291 297 297 299
305 305 306 306 307 307 300 298 298 294 287 283 289 287 288 286 286 286 288 292 294 292 286 281 278 276 284 284 287 292 291 290 285 282 281 280 290 297 300 298 287 298 302 299
305 305 306 306 307 307 302 298 298 296 289 290 291 287 287 291 290 288 289 288 289 294 288 282 279 277 287 282 285 285 285 285 282 281 280 286 295 297 299 287 287 297 300 305
305 305 306 307 307 308 302 295 298 296 291 290 292 293 288 291 290 287 290 289 290 287 284 281 280 282 287 286 288 286 286 285 282 283 281 282 296 296 289 293 297 298 299 300
305 305 306 307 307 308 307 297 297 300 294 292 294 295 296 294 294 291 292 290 290 291 285 287 285 286 287 286 282 291 285 289 286 289 290 298 298 298 300 298 296 298 298 300
305 305 306 307 307 307 306 298 299 297 293 291 291 291 296 298 297 298 290 292 294 292 296 291 288 285 290 283 286 288 291 294 291 290 297 296 298 301 301 299 298 300 301 301
305 306 306 307 307 306 306 300 300 297 293 288 290 298 296 302 300 299 298 296 298 297 297 292 288 287 293 287 288 287 290 293 291 290 296 297 299 299 299 299 301 300 301 303
305 306 306 306 306 305 302 298 300 298 292 288 290 295 298 303 303 301 299 297 295 293 291 290 287 291 292 293 291 288 293 290 290 289 295 296 296 300 301 299 300 300 301 302
305 305 306 306 306 305 293 288 294 300 299 292 286 294 295 299 301 300 299 297 295 295 293 292 292 291 293 287 286 291 295 297 296 295 299 299 300 302 303 299 300 301 302 306
304 304 305 307 307 295 290 289 297 302 300 292 288 287 295 298 299 299 299 299 295 295 294 291 287 287 290 285 282 291 294 295 298 300 300 298 301 298 302 302 302 303 304 309
303 303 307 306 306 302 293 297 304 302 295 295 286 286 291 298 294 293 297 294 294 293 291 287 286 287 286 282 290 293 295 295 297 298 298 298 300 302 302 302 302 300 301 307
302 305 306 299 293 291 294 306 305 301 294 289 289 285 284 296 294 295 292 293 290 293 289 291 291 286 283 289 292 293 295 294 294 296 296 297 297 300 301 301 300 300 301 304
303 298 294 290 295 305 304 295 291 293 294 295 289 292 286 292 293 291 288 288 287 286 289 293 288 286 293 295 295 296 297 297 297 292 293 295 297 300 300 300 302 301 302 303
293 292 290 295 302 295 290 287 286 286 285 290 291 290 287 296 289 288 290 285 286 282 287 287 286 286 290 296 297 298 299 299 299 298 297 297 297 297 298 300 301 301 302 303
293 294 297 299 291 288 286 281 285 285 284 288 287 288 289 294 292 285 287 284 285 280 289 286 284 290 295 297 298 298 300 301 301 301 298 298 299 300 300 301 302 302 303 304
301 297 295 287 286 279 283 280 283 283 287 288 287 285 288 290 287 286 281 278 282 287 283 283 288 293 295 297 299 300 302 301 301 301 300 300 301 302 302 302 304 303 303 304
292 290 284 284 281 282 281 282 285 288 288 288 287 285 285 285 283 287 279 285 282 272 273 282 289 292 295 297 299 300 300 301 300 300 300 301 302 304 305 306 305 303 303 305
291 287 281 284 288 288 288 289 288 289 289 287 286 285 286 281 283 286 282 279 271 279 280 287 291 293 294 296 298 299 299 299 300 301 299 299 300 303 304 303 303 303 303 308
294 290 285 287 287 288 288 288 287 289 288 288 287 283 282 281 285 277 281 281 275 284 286 290 293 293 293 296 298 299 300 301 301 301 300 299 300 302 304 306 308 304 304 304
292 287 289 288 287 288 288 288 289 289 288 284 285 283 281 282 275 277 285 285 283 287 291 293 293 292 293 295 298 298 300 301 301 302 303 302 303 302 303 303 305 306 307 307

GFSNW_sfc_thetae_030.txt.gz
Theta_e
305 306 306 306 307 305 304 301 294 304 308 295 290 287 289 292 292 294 292 292 289 288 288 287 286 285 288 294 294 291 297 296 292 296 301 303 302 300 301 295 294 297 297 296
305 306 306 306 306 305 302 297 296 307 304 288 290 290 289 291 291 291 291 290 291 292 289 285 288 289 294 294 293 291 294 294 291 293 298 301 299 301 302 303 303 297 293 294
305 306 306 306 305 305 303 298 291 298 300 295 287 287 288 288 293 291 292 291 293 291 289 291 288 289 293 295 294 295 296 294 294 291 294 298 296 298 301 301 296 297 296 298
305 306 306 306 305 305 303 299 293 294 290 289 287 289 289 288 287 291 293 290 290 288 285 288 287 291 291 294 296 295 296 291 295 296 296 296 298 297 298 298 299 296 298 298
305 306 306 306 306 305 303 295 292 295 292 291 288 289 289 287 288 288 288 289 290 290 287 288 288 290 290 288 292 293 296 290 295 292 296 296 295 298 299 299 300 299 300 299
306 306 306 306 306 306 299 299 302 293 291 289 287 288 289 288 289 292 292 291 289 290 291 295 296 296 296 295 293 293 292 292 292 289 295 294 292 297 299 300 301 301 297 303
306 306 306 306 307 306 304 301 298 290 287 290 289 289 290 288 289 287 292 293 291 295 299 298 299 298 296 296 295 296 292 291 292 291 294 286 299 305 303 301 302 303 303 305
305 306 306 307 307 307 304 304 297 292 286 289 289 290 289 291 292 290 292 294 296 299 295 290 289 290 291 292 294 294 296 292 290 289 290 295 299 302 302 300 301 306 306 306
305 305 306 307 307 307 306 305 304 296 288 290 291 289 290 288 289 291 292 298 301 297 292 289 284 284 285 286 290 296 295 295 289 291 288 287 298 303 306 306 299 306 307 308
305 305 305 305 307 308 307 306 306 297 289 293 294 290 289 292 292 288 292 294 293 295 289 286 286 287 289 284 285 288 288 289 286 287 291 295 302 305 307 295 298 307 308 309
304 305 305 305 307 308 308 305 308 300 293 294 297 296 292 291 291 287 293 293 293 292 286 287 287 286 290 289 288 289 289 286 286 287 289 289 304 305 300 303 308 308 309 311
304 304 305 305 306 307 308 303 309 306 296 296 301 300 300 297 298 293 293 293 292 292 289 292 289 288 290 289 287 294 289 293 292 293 292 301 303 305 307 308 307 308 309 311
304 304 305 305 305 306 307 305 305 303 295 297 300 298 301 303 301 301 291 294 296 294 299 292 290 287 290 287 288 290 295 299 294 297 300 301 300 304 306 307 308 310 311 313
304 305 305 305 304 305 306 304 306 303 297 289 298 305 301 305 304 300 299 297 298 300 297 294 290 289 295 290 289 289 291 293 294 297 300 303 301 302 304 306 308 309 312 312
304 305 306 305 304 305 306 305 306 306 297 293 296 302 305 304 304 301 298 297 295 296 293 293 291 295 295 298 294 292 297 295 292 291 298 299 300 302 305 305 304 308 310 311
304 305 305 305 305 306 305 301 307 308 302 293 289 303 303 304 305 304 299 299 298 298 295 294 297 300 297 291 292 296 298 299 300 298 303 303 304 305 306 305 304 307 310 312
304 305 304 305 307 307 304 301 305 305 303 294 291 297 303 304 305 303 300 302 300 298 298 295 297 296 299 292 290 297 299 298 299 301 303 302 304 304 305 304 306 307 312 313
304 304 305 306 305 305 305 308 304 305 301 298 290 295 299 305 301 298 306 299 299 297 297 298 293 295 295 291 294 295 296 297 298 301 302 303 305 305 304 306 306 307 310 311
303 303 305 307 306 306 303 306 305 306 302 292 291 289 287 304 303 302 299 303 294 302 294 292 293 290 289 290 292 293 294 294 295 298 299 302 303 304 304 305 305 306 309 310
303 304 304 302 305 304 305 303 298 297 299 299 293 299 292 299 300 299 297 300 295 292 297 298 292 291 296 299 300 299 299 300 299 296 297 300 303 304 305 305 306 306 307 309
303 299 298 301 304 303 301 295 294 295 292 296 297 299 296 301 293 292 296 292 297 290 294 291 292 290 297 301 300 301 301 301 301 302 302 302 304 303 305 306 306 307 308 309
300 298 298 298 297 300 295 295 297 295 294 299 298 299 300 299 299 293 295 289 294 289 298 292 289 296 300 299 300 301 301 301 301 302 303 304 306 305 305 307 307 308 309 310
303 295 292 295 298 288 290 287 292 293 297 299 300 296 301 299 299 296 294 288 289 297 292 291 295 299 301 301 302 302 303 302 302 302 304 304 304 305 307 307 309 310 311 312
296 292 288 293 291 294 296 296 297 300 299 299 299 299 298 299 294 294 287 293 293 287 286 288 296 300 301 302 303 302 301 302 302 303 303 303 304 306 308 310 312 312 311 311
293 295 288 293 298 300 301 301 301 301 304 301 299 300 299 296 293 293 290 287 284 287 289 296 300 302 302 302 303 303 303 302 302 303 305 305 307 308 310 312 313 313 312 312
294 295 295 299 297 296 298 299 299 303 302 303 301 296 293 292 294 287 285 285 285 288 293 301 303 303 303 303 304 305 305 305 304 303 304 306 306 305 307 311 312 312 313 313
294 294 300 298 298 297 297 299 299 304 300 295 297 289 289 296 291 287 291 287 290 298 302 305 304 303 303 304 304 304 305 306 305 305 305 304 306 305 304 304 306 308 312 314

GFSNW_sfc_thetae_036.txt.gz
Theta_e
307 307 307 307 307 305 305 305 297 308 309 296 298 292 292 294 294 296 293 293 291 289 290 289 289 289 292 296 296 290 295 292 288 292 300 300 301 298 299 294 294 297 297 297
307 307 307 307 307 306 303 301 300 310 307 290 292 293 293 294 293 294 293 291 292 293 290 287 288 291 296 297 295 292 294 291 286 289 295 300 297 299 301 302 304 297 293 297
307 307 307 307 307 306 304 302 296 301 301 299 292 291 290 290 297 294 295 293 294 291 290 292 289 290 294 297 296 297 295 290 288 285 289 294 293 298 300 300 296 297 299 301
307 307 307 307 306 306 304 302 297 299 292 293 292 292 291 290 290 294 295 292 292 290 287 289 289 292 293 296 296 296 292 287 290 291 292 293 293 296 298 298 301 298 301 302
306 307 307 307 306 306 305 300 296 297 294 295 293 292 291 290 292 292 290 291 292 292 289 290 288 291 292 291 295 293 293 287 292 289 292 291 290 295 298 300 302 303 304 304
306 306 307 307 307 306 302 303 303 297 293 293 292 292 291 291 292 294 294 293 291 291 293 296 297 297 297 295 293 292 292 291 289 285 291 289 287 296 299 301 303 305 301 307
306 306 307 307 307 306 304 303 303 295 290 292 291 292 293 292 292 291 295 295 293 297 301 300 299 298 297 297 295 296 292 291 291 287 287 279 295 305 304 302 304 308 306 307
305 306 306 307 307 307 304 304 301 296 289 292 293 293 292 295 296 293 294 298 300 302 298 292 290 290 292 294 296 295 297 292 288 286 286 288 294 302 303 301 302 308 307 307
306 305 306 306 306 307 305 304 307 299 291 292 295 293 294 292 292 293 295 300 303 301 294 291 285 282 288 288 292 297 295 296 290 289 285 283 297 305 310 309 298 309 311 311
306 307 306 305 306 307 304 304 310 301 292 296 297 292 292 294 292 290 294 295 297 301 293 288 287 285 292 285 287 289 289 291 288 288 286 288 300 305 310 296 298 310 312 313
306 307 307 306 306 307 304 303 307 303 296 299 301 301 296 294 292 287 293 294 295 295 289 288 288 287 290 289 291 291 290 288 288 290 288 284 301 304 300 304 312 312 312 313
306 306 307 306 306 307 306 299 308 310 300 299 305 305 307 305 301 295 293 293 293 295 288 291 291 287 289 288 285 295 289 292 290 294 293 300 304 304 307 308 308 310 312 313
306 306 307 307 306 307 305 301 305 304 298 300 302 301 308 309 306 304 292 296 298 296 298 294 293 288 292 287 288 289 295 299 293 295 295 298 303 305 307 309 309 311 311 314
305 306 307 307 307 306 305 301 307 304 299 294 300 310 304 311 308 305 302 298 299 299 298 294 293 291 298 292 291 290 295 297 295 294 297 299 300 304 306 308 309 310 311 312
305 306 307 307 306 306 306 306 308 308 300 294 298 305 307 309 309 305 303 299 297 295 294 295 293 299 298 299 297 292 297 295 293 292 299 298 300 303 306 306 308 309 309 310
305 306 306 306 306 306 307 300 310 310 307 296 292 306 306 308 308 306 303 302 298 298 297 297 299 303 299 294 290 297 299 301 301 297 302 302 303 305 307 305 308 310 309 311
306 306 306 305 305 307 305 301 305 309 308 297 293 297 305 306 305 304 304 304 301 301 299 298 299 299 300 297 291 297 300 301 301 303 302 300 304 301 306 307 308 310 311 312
305 305 305 305 306 306 306 309 307 310 304 301 292 295 300 308 300 299 305 302 303 302 300 302 298 299 299 293 297 299 299 301 299 299 301 302 305 305 305 307 308 308 309 311
305 305 305 306 306 305 304 306 306 311 303 295 294 291 291 306 302 302 301 302 296 303 297 299 300 296 293 296 298 299 300 297 297 299 300 302 302 304 305 306 307 307 308 310
305 306 305 301 303 307 307 304 299 298 299 300 295 301 298 302 300 299 298 300 297 294 298 301 296 296 300 301 301 303 302 301 300 299 298 300 300 302 304 305 307 307 309 310
306 303 302 305 307 305 302 297 294 296 293 298 300 301 298 305 298 297 299 296 298 292 296 295 295 293 298 302 303 305 305 304 302 302 304 304 304 304 303 305 307 308 309 310
300 299 301 303 300 298 293 295 298 297 295 301 299 299 303 304 304 297 298 292 295 289 300 295 291 297 301 302 302 305 306 305 302 303 304 305 305 306 305 306 307 310 310 311
303 297 294 294 296 290 291 289 294 295 299 301 301 298 302 303 302 297 295 289 290 299 293 292 296 300 300 302 302 303 306 306 304 303 306 306 306 307 307 307 310 311 311 312
298 294 288 292 292 295 297 298 298 301 302 300 300 300 299 301 297 296 290 294 295 288 287 289 298 301 301 303 303 303 303 305 304 304 305 304 304 306 308 308 311 311 311 312
296 297 288 294 300 302 303 304 302 303 304 301 300 300 300 299 295 295 292 288 287 289 291 297 302 303 303 303 303 303 303 304 303 304 304 305 304 305 305 307 309 311 311 312
297 296 295 300 299 300 302 302 301 304 303 303 301 297 294 294 295 291 289 287 286 292 297 301 305 303 304 305 305 304 304 305 305 304 305 305 305 304 304 306 306 306 307 308
294 295 300 299 299 299 301 303 303 306 302 297 297 292 292 297 293 292 293 287 294 300 300 303 306 304 305 305 304 303 305 305 306 306 306 306 307 306 305 303 304 305 304 305

GFSNW_sfc_thetae_042.txt.gz
Theta_e
307 307 307 307 307 305 299 293 289 301 302 288 286 283 289 293 291 295 293 291 289 287 287 285 286 286 289 295 295 288 290 285 281 284 290 294 291 289 287 280 280 284 285 285
307 307 307 307 307 305 298 290 291 302 299 286 283 288 291 292 291 292 291 289 291 290 287 283 288 289 294 296 293 290 289 282 277 279 286 291 289 292 291 288 284 282 281 285
307 307 306 307 306 305 300 293 288 291 292 291 286 286 288 288 294 292 292 290 291 288 286 287 285 287 293 295 294 298 293 286 283 276 283 288 286 290 291 288 283 284 286 288
308 307 307 306 306 305 297 291 288 290 282 286 287 288 288 287 288 292 291 289 289 287 284 285 285 289 290 293 295 294 293 284 286 286 288 289 288 289 289 287 289 284 289 289
307 307 307 307 306 305 296 288 289 292 290 290 289 288 287 289 289 290 287 287 289 289 285 288 285 288 287 286 290 289 290 285 287 285 288 289 287 291 290 289 290 290 290 290
307 307 308 307 306 302 290 293 294 294 291 287 287 288 289 290 292 293 293 291 289 287 290 293 294 293 292 290 287 286 287 287 284 280 288 288 284 288 289 290 292 292 288 293
308 308 308 308 307 304 298 294 296 291 286 288 288 290 292 290 291 290 292 291 288 293 297 295 296 293 292 292 291 291 286 284 284 281 285 276 288 299 299 297 297 296 296 297
307 308 308 308 308 306 300 297 296 293 286 289 290 291 291 292 293 291 290 292 293 295 292 289 286 287 288 291 292 291 290 286 283 281 283 287 291 295 294 293 295 304 304 306
307 307 307 308 308 307 303 300 295 295 290 287 292 290 291 289 289 290 291 293 295 293 288 284 280 278 285 286 289 296 291 290 286 283 281 279 288 296 298 298 290 305 306 307
307 307 307 307 307 308 304 301 297 296 290 293 292 290 290 295 292 289 292 291 289 291 283 278 278 283 288 282 284 287 287 287 283 283 283 287 293 293 298 290 294 303 306 306
306 306 306 307 307 307 305 301 299 293 291 292 295 296 292 294 293 288 292 289 287 288 281 282 282 284 286 285 288 287 284 285 285 285 284 281 295 295 290 296 302 305 306 306
305 306 306 306 306 307 307 299 300 301 295 294 299 300 302 300 299 295 294 290 290 293 285 283 286 284 287 286 283 292 286 289 285 284 286 294 297 296 300 302 303 304 305 305
305 305 306 306 306 307 306 301 300 294 290 293 293 294 300 302 303 303 293 289 295 294 295 289 288 285 290 285 287 289 293 297 291 289 293 295 297 300 301 302 302 305 306 306
304 304 305 306 307 307 306 300 300 297 295 290 292 301 298 304 303 301 299 294 296 296 295 291 289 287 294 290 289 290 292 293 291 292 295 295 299 299 300 302 303 303 304 305
303 304 305 306 305 306 304 301 301 301 295 291 292 297 300 301 301 300 299 298 296 294 290 291 289 294 294 294 290 290 295 291 288 287 294 293 295 299 302 301 301 303 303 303
301 303 303 304 305 306 300 297 302 302 299 295 287 294 296 300 300 300 297 298 297 295 293 293 291 295 293 288 286 292 295 296 296 293 297 297 298 300 301 300 301 303 303 304
302 303 304 304 305 303 296 297 301 305 305 296 289 288 298 302 299 298 298 300 297 295 295 293 291 292 292 289 283 291 295 296 297 298 299 296 297 296 300 301 303 305 304 306
303 303 304 305 305 303 298 300 305 306 301 298 286 286 290 301 294 292 298 295 296 297 293 291 291 292 292 286 291 293 296 296 297 298 299 299 301 301 301 302 302 302 303 304
303 304 305 301 299 300 303 308 308 307 301 292 290 280 280 299 297 298 296 294 289 295 291 291 291 286 283 292 294 295 296 293 297 297 300 301 298 299 301 300 301 301 302 304
304 302 299 297 299 308 307 301 297 297 297 296 289 291 286 298 293 293 293 291 288 283 290 295 285 283 294 295 299 298 298 298 297 298 297 299 298 298 300 300 301 303 304 304
295 291 292 297 303 300 298 293 291 292 290 293 291 291 288 296 292 289 291 286 287 283 288 291 287 286 293 297 300 300 299 298 299 302 302 303 302 299 300 301 303 304 304 305
292 294 298 297 295 293 291 289 293 292 288 291 290 292 293 294 298 288 288 284 287 283 293 288 282 290 297 299 300 299 299 298 300 303 303 303 304 304 302 303 304 306 308 309
298 295 292 291 291 286 286 283 288 289 293 296 295 293 296 294 296 291 287 282 282 289 280 281 287 293 298 298 300 298 298 298 300 301 303 303 304 305 304 303 305 306 306 307
292 291 285 286 284 286 287 288 291 297 299 298 295 293 294 294 290 291 286 289 287 284 278 280 289 294 298 298 301 299 297 297 298 299 301 302 303 302 303 303 303 303 303 304
288 290 283 286 290 293 294 295 294 298 300 298 295 293 293 289 290 291 287 284 279 277 278 283 292 296 297 298 299 299 298 297 298 299 301 302 301 299 300 301 301 301 302 302
290 288 285 288 287 289 291 291 291 298 299 300 298 291 289 288 288 285 283 280 278 280 285 291 294 297 300 298 299 299 299 299 298 300 300 300 301 298 297 299 300 299 298 299
289 287 291 289 289 289 291 293 293 299 296 291 296 289 288 290 285 282 283 282 284 288 291 295 296 296 297 300 300 300 301 299 300 301 301 300 300 298 297 295 296 298 297 296

GFSNW_sfc_thetae_045.txt.gz
Theta_e
308 308 307 307 306 304 301 290 287 299 299 287 283 280 288 293 291 294 292 291 288 286 286 284 285 286 289 294 293 287 289 284 280 283 288 291 288 287 285 280 278 282 280 282
308 307 307 307 306 305 300 290 290 300 296 278 277 286 289 291 290 291 291 288 290 290 285 282 287 288 293 294 292 288 289 281 277 278 285 290 286 289 288 287 284 282 279 281
308 307 307 307 306 305 299 294 285 288 289 288 283 284 287 287 293 292 292 289 290 286 284 286 284 286 291 294 293 297 293 286 280 275 281 285 284 287 290 286 280 284 285 286
308 308 308 307 306 305 295 289 285 287 280 283 285 284 287 286 288 293 291 287 288 286 284 284 284 287 289 292 294 292 290 284 285 285 287 287 286 286 288 287 287 283 287 287
308 308 308 308 306 303 294 284 285 289 286 287 286 286 285 287 289 289 288 287 289 288 283 286 284 287 287 286 289 289 289 281 285 283 288 288 286 288 288 289 290 288 289 288
308 308 308 308 307 300 289 293 290 288 285 288 287 286 289 288 291 291 293 291 289 286 288 292 293 293 292 291 289 286 287 285 281 279 286 285 282 287 288 289 291 289 285 290
308 308 308 308 308 303 298 295 293 289 281 285 286 289 289 289 289 289 292 293 288 292 295 293 293 290 290 290 290 290 286 283 284 279 283 275 287 296 294 291 292 292 293 293
307 307 308 307 308 307 300 299 295 288 284 286 287 290 289 289 291 291 291 292 294 294 289 286 286 285 286 290 290 289 289 286 281 279 280 285 288 293 292 291 291 300 301 303
307 307 307 307 307 307 303 300 299 293 287 283 292 287 290 288 288 290 290 296 293 290 285 283 281 279 284 283 287 295 290 289 284 281 278 277 286 293 295 294 286 300 301 302
306 306 306 307 307 307 305 300 300 296 288 290 289 287 288 293 292 289 291 292 288 288 281 277 276 282 288 281 283 285 286 285 281 281 280 285 289 291 294 286 288 297 302 303
304 305 306 306 307 307 305 301 302 297 290 291 291 292 289 293 292 288 292 289 288 285 281 282 281 283 286 286 288 286 284 283 285 284 282 280 293 290 289 294 299 300 302 303
305 304 305 305 306 306 306 299 302 302 295 293 296 297 298 298 296 293 294 291 288 292 286 286 286 284 287 284 282 292 285 288 285 284 285 294 296 292 299 301 300 300 302 303
303 303 304 305 306 306 306 301 302 297 293 290 290 290 295 299 299 301 293 291 294 289 294 289 288 285 289 285 286 288 291 295 290 289 292 292 297 298 300 302 301 303 304 303
302 301 301 304 305 306 305 301 301 298 294 287 288 299 296 302 302 300 301 297 294 293 295 290 288 286 292 289 290 289 290 292 290 290 294 295 298 297 299 300 302 302 304 304
302 302 303 302 303 304 304 302 302 301 294 289 291 295 297 299 299 299 299 297 295 292 290 289 288 292 293 292 292 286 292 290 289 288 294 293 294 298 300 299 299 302 302 303
302 302 302 302 303 304 301 294 300 301 299 292 286 292 294 298 299 298 298 297 296 294 291 291 294 292 295 287 286 290 293 295 296 293 297 297 298 300 301 300 301 303 303 304
303 303 303 303 303 302 296 292 301 304 301 293 289 284 293 298 297 298 298 299 297 295 294 292 288 290 295 286 283 290 293 296 296 298 299 296 298 297 301 302 303 304 305 306
304 303 304 304 305 303 298 300 303 304 299 298 289 285 287 298 292 295 299 297 297 295 295 292 289 291 290 285 290 292 294 295 296 297 300 299 301 300 301 303 303 302 303 304
302 304 306 300 297 298 301 308 307 306 300 292 291 285 276 297 295 298 297 297 292 296 293 290 293 286 282 289 291 293 294 291 295 296 299 302 300 300 300 301 302 301 302 304
302 299 300 297 298 304 305 301 297 297 298 297 292 290 283 291 295 291 291 291 287 287 290 295 290 287 292 295 296 296 297 296 297 297 298 299 300 300 300 300 302 303 303 305
289 287 291 296 301 297 297 293 290 289 289 291 291 289 286 292 287 291 292 285 285 284 290 291 287 285 292 296 297 299 298 298 297 300 302 302 301 299 299 301 304 305 306 307
290 291 295 296 294 289 290 289 292 290 287 290 288 289 290 290 294 290 286 283 285 282 290 287 283 288 294 297 299 298 298 297 297 300 301 303 303 302 300 301 302 302 304 305
295 294 292 291 290 284 285 280 285 290 293 296 295 293 293 292 292 289 285 281 281 287 278 281 285 291 296 298 298 299 297 296 297 298 299 302 301 302 302 301 302 302 302 304
289 289 284 284 282 284 284 285 290 296 299 299 298 294 295 291 289 288 283 286 283 281 274 278 287 292 295 297 299 297 295 295 297 298 300 299 299 299 301 300 301 301 300 302
285 288 282 284 288 288 291 293 293 295 297 298 294 295 295 290 289 288 284 281 275 277 277 281 290 294 295 296 297 297 296 296 297 297 298 297 297 296 298 299 299 300 299 299
287 286 283 286 285 285 288 288 288 292 294 297 298 293 290 290 288 284 279 276 275 278 281 288 291 294 296 295 297 297 298 297 297 297 297 296 296 294 296 298 298 296 296 296
287 283 287 287 287 287 288 289 290 291 291 289 292 289 288 291 285 280 280 279 282 285 288 291 294 295 295 297 298 298 299 298 298 298 297 296 297 296 294 293 294 294 294 294

GFSNW_sfc_thetae_048.txt.gz
Theta_e
307 307 307 307 307 304 299 289 287 298 298 286 279 278 286 292 291 293 291 290 288 285 285 283 283 284 288 292 292 286 289 284 280 283 287 289 285 283 284 279 278 280 277 278
308 307 307 306 307 304 299 292 291 298 293 277 276 284 288 290 290 290 290 288 289 288 285 282 285 287 292 293 291 287 288 281 276 279 284 288 284 287 285 285 284 280 277 279
308 307 307 308 307 305 298 291 284 287 287 285 282 285 285 286 292 291 291 289 289 288 284 286 283 285 290 292 292 297 293 284 279 274 279 284 282 285 286 285 280 281 283 285
309 308 307 308 307 304 293 287 282 290 279 281 282 287 287 286 286 292 291 287 288 287 283 284 283 286 288 291 293 290 289 283 285 285 286 286 285 285 286 284 285 283 285 286
308 308 308 308 307 303 291 283 285 287 283 285 287 287 286 287 288 289 287 287 289 290 285 285 283 286 287 286 289 289 290 283 283 282 285 285 284 286 287 287 287 286 287 286
308 308 308 308 307 301 293 294 294 290 285 282 280 281 287 287 288 291 292 291 289 287 288 291 291 292 291 291 289 287 288 285 283 276 284 284 278 284 285 287 288 288 283 288
309 308 308 308 307 304 298 296 294 288 282 283 282 286 287 287 289 287 291 291 289 292 295 292 292 289 289 289 289 290 287 283 284 278 278 273 284 294 294 291 289 291 291 292
308 307 307 307 307 307 300 299 295 290 284 287 285 287 287 288 291 290 291 291 294 293 288 284 283 284 287 290 290 288 289 286 282 277 276 282 287 291 291 289 288 294 295 299
306 305 305 306 307 307 304 300 300 294 286 285 290 286 286 284 287 290 292 293 293 288 282 282 279 278 284 283 287 293 289 289 283 281 277 275 285 289 293 293 286 297 299 299
304 305 305 306 306 307 304 301 301 296 288 291 290 287 287 289 289 287 291 292 288 286 280 280 280 281 287 282 282 284 285 284 280 281 279 284 289 292 293 284 286 297 300 300
304 303 304 305 305 306 304 301 302 297 292 292 294 293 289 290 289 287 291 289 286 283 280 282 282 281 285 285 287 285 283 283 283 283 281 279 294 290 285 289 293 298 300 301
303 303 303 302 304 306 305 297 302 303 295 293 298 298 298 296 295 292 292 291 291 291 280 282 283 281 286 285 282 291 283 287 285 284 285 293 296 290 292 295 296 299 299 302
301 302 303 303 302 304 305 301 302 298 293 293 289 288 294 296 297 299 289 293 295 292 293 287 288 284 287 284 286 288 289 293 289 289 292 294 296 298 298 298 298 301 301 302
300 301 302 303 303 303 303 299 302 298 294 286 287 296 294 299 297 295 297 297 296 294 294 289 288 286 291 288 289 289 288 290 290 290 293 294 297 297 299 299 301 301 301 303
301 302 302 302 302 303 302 301 301 301 294 288 289 293 295 297 297 298 297 297 295 293 290 289 288 291 290 293 291 286 290 289 289 288 294 294 295 298 300 299 300 301 301 303
301 302 302 302 302 302 300 293 300 302 300 291 285 291 295 296 297 297 297 297 296 294 291 290 293 291 293 289 286 289 291 293 293 292 297 298 298 300 301 300 302 302 303 304
301 303 303 302 304 301 295 293 300 303 301 292 289 285 293 296 295 297 297 298 297 295 294 293 290 289 294 290 284 290 292 294 296 297 299 297 299 298 301 302 303 304 305 306
303 302 303 304 305 303 298 301 303 304 298 296 289 285 285 295 291 292 298 296 297 296 293 294 291 291 288 287 288 291 293 294 296 298 300 299 302 302 302 303 304 303 304 305
301 302 305 299 299 296 300 305 307 303 299 292 290 285 278 292 295 297 297 298 291 296 292 292 293 287 282 288 289 292 293 291 293 298 300 301 301 301 301 302 303 303 304 306
299 294 297 296 297 303 303 301 298 297 298 296 291 291 284 289 292 293 293 293 290 287 292 296 290 289 290 292 294 294 295 295 294 296 297 299 299 298 299 301 304 304 304 307
287 283 288 292 299 296 295 292 291 287 286 289 290 290 288 290 284 285 294 287 286 283 285 287 288 284 290 295 296 297 296 296 295 296 299 301 301 300 298 300 301 301 303 304
289 290 294 293 292 287 285 288 292 289 285 288 287 289 288 289 290 289 289 285 285 282 287 285 284 288 293 295 296 296 296 295 296 297 297 299 301 301 300 299 299 300 301 304
291 292 290 290 289 283 283 279 283 288 294 295 296 293 293 292 292 290 285 282 281 286 278 280 284 290 295 297 297 297 296 296 296 297 297 298 300 301 299 299 301 300 300 302
286 285 281 283 281 283 282 283 288 295 296 296 296 296 294 294 290 287 283 285 283 276 275 278 285 290 294 296 297 296 294 294 295 296 296 296 296 297 298 297 299 298 297 299
283 285 280 282 286 286 290 293 292 295 294 293 293 295 295 292 289 287 283 281 274 276 279 282 287 291 294 295 297 296 295 295 295 296 295 295 295 294 295 296 296 297 296 295
285 284 282 285 284 284 285 286 286 289 290 291 294 292 289 289 289 283 282 276 273 278 280 287 290 293 294 296 298 296 297 296 296 295 294 294 294 293 293 294 294 294 294 293
285 283 285 284 283 284 284 286 286 288 286 285 290 288 287 291 286 284 283 281 281 284 287 288 291 294 295 296 296 297 298 297 296 295 295 294 294 294 292 291 292 293 293 293